This demonstration page uses our WeatherBlox Daily Observations layout. Learn more.

Hourly Observations for April 21, 2015

Temp ( °F °C ) Dew Point ( °F °C ) Humidity (%) Winds ( mph kmh ) Pressure ( in mb ) Visibility ( mi km ) Precip ( " mm )
12:15 am 00:15 Clear 37 2.9 32 -0.1 81 81 Calm 29.94 1014 10 16.0934 0 0
12:35 am 00:35 Clear 36 2.2 31 -0.5 83 83 Calm 29.94 1014 10 16.0934 0 0
12:55 am 00:55 Clear 36 2 30 -1 81 81 Calm 29.94 1014 10 16.0934 0 0
1:15 am 01:15 Clear 36 2.1 28 -2 75 75 Calm 29.94 1014 10 16.0934 0 0
1:35 am 01:35 Clear 35 1.5 28 -2 78 78 Calm 29.97 1015 10 16.0934 0 0
1:55 am 01:55 Clear 36 2.4 28 -2 73 73 Calm 29.97 1015 10 16.0934 0 0
2:15 am 02:15 Partly Cloudy 35 1.6 29 -1.9 78 78 Calm 29.97 1015 10 16.0934 0 0
2:35 am 02:35 Mostly Cloudy 36 2 28 -2.1 75 75 Calm 29.97 1015 10 16.0934 0 0
2:55 am 02:55 Mostly Cloudy 36 2.1 28 -2.4 72 72 WNW 5 7 29.97 1015 10 16.0934 0 0
3:15 am 03:15 Cloudy 37 2.7 28 -2 71 71 Calm 29.97 1015 10 16.0934 0 0
3:35 am 03:35 Cloudy 37 3 28 -2 70 70 W 5 7 29.94 1014 10 16.0934 0 0
3:55 am 03:55 Mostly Cloudy 37 3 28 -2.1 69 69 W 3 6 29.94 1014 10 16.0934 0 0
4:15 am 04:15 Mostly Cloudy 36 2.2 29 -1.8 75 75 Calm 29.94 1014 10 16.0934 0 0
4:35 am 04:35 Cloudy 36 2 29 -1.5 78 78 NNW 3 6 29.94 1014 10 16.0934 0 0
4:55 am 04:55 Cloudy 36 2 29 -1.8 76 76 NW 5 7 29.94 1014 10 16.0934 0 0
5:15 am 05:15 Partly Cloudy 35 1.5 28 -2 78 78 NW 6 9 29.94 1014 10 16.0934 0 0
5:35 am 05:35 Clear 34 1.2 29 -1.8 81 81 WNW 6 9 29.97 1015 10 16.0934 0 0
5:55 am 05:55 Clear 34 1 28 -2.2 79 79 NW 6 9 29.97 1015 10 16.0934 0 0
6:15 am 06:15 Clear 33 0.5 28 -2.3 82 82 WNW 5 7 29.97 1015 10 16.0934 0 0
6:35 am 06:35 Clear 34 0.9 28 -2.5 78 78 WNW 7 11 29.97 1015 10 16.0934 0 0
6:55 am 06:55 Sunny 33 0.8 27 -2.7 78 78 WNW 6 9 29.97 1015 10 16.0934 0 0
7:15 am 07:15 Sunny 34 1 27 -2.7 77 77 WNW 6 9 29.97 1015 10 16.0934 0 0
7:35 am 07:35 Sunny 35 1.5 28 -2.4 76 76 WNW 6 9 29.94 1014 10 16.0934 0 0
7:55 am 07:55 Sunny 36 2.3 28 -2.1 73 73 WNW 6 9 29.94 1014 10 16.0934 0 0
8:15 am 08:15 Sunny 39 3.8 29 -1.4 69 69 WNW 3 6 29.94 1014 10 16.0934 0 0
8:35 am 08:35 Sunny 42 5.7 30 -1.1 62 62 W 3 6 29.91 1013 10 16.0934 0 0
8:55 am 08:55 Sunny 45 7.4 32 -0.1 59 59 W 3 6 29.91 1013 10 16.0934 0 0
9:15 am 09:15 Sunny 48 8.9 32 0 54 54 W 6 9 29.88 1012 10 16.0934 0 0
9:35 am 09:35 Sunny 51 10.4 28 -2.3 41 41 W 5 7 29.88 1012 10 16.0934 0 0
9:55 am 09:55 Sunny 52 11.3 26 -3.1 37 37 W 8 13 29.88 1012 10 16.0934 0 0
10:15 am 10:15 Sunny 54 12.3 26 -3.3 34 34 W 8 13 29.85 1011 10 16.0934 0 0
10:35 am 10:35 Sunny 56 13.1 28 -2.5 34 34 WSW 9 15 29.85 1011 10 16.0934 0 0
10:55 am 10:55 Sunny 57 13.8 28 -2.3 33 33 WSW 12 19 29.85 1011 10 16.0934 0 0
11:15 am 11:15 Sunny 58 14.3 28 -2.2 32 32 WSW 10 17 29.85 1011 10 16.0934 0 0
11:35 am 11:35 Sunny 58 14.5 28 -2 32 32 SW 12 19 29.8 1009 10 16.0934 0 0
11:55 am 11:55 Sunny 59 15 29 -1.9 31 31 WSW 9 15 29.8 1009 10 16.0934 0 0
12:15 pm 12:15 Sunny 60 15.7 28 -2 30 30 WSW 12 19 29.8 1009 10 16.0934 0 0
12:35 pm 12:35 Sunny 61 16.2 28 -2.5 28 28 WSW 12 19 29.77 1008 10 16.0934 0 0
12:55 pm 12:55 Sunny 62 16.7 27 -3 26 26 WNW 9 15 29.77 1008 10 16.0934 0 0
1:15 pm 13:15 Sunny 63 17.3 27 -2.8 25 25 WNW 13 20 29.77 1008 10 16.0934 0 0
1:35 pm 13:35 Sunny 64 18 26 -3.4 23 23 W 14 22 29.74 1007 10 16.0934 0 0
1:55 pm 13:55 Sunny 64 17.9 25 -3.7 23 23 WNW 12 19 29.74 1007 10 16.0934 0 0
2:15 pm 14:15 Sunny 66 19.1 28 -2.2 24 24 W 17 28 29.71 1006 10 16.0934 0 0
2:35 pm 14:35 Partly Cloudy 66 19 27 -2.9 23 23 W 17 28 29.71 1006 10 16.0934 0 0
2:55 pm 14:55 Partly Cloudy 67 19.5 27 -2.8 22 22 W 20 31 29.71 1006 10 16.0934 0 0
3:15 pm 15:15 Partly Cloudy 67 19.5 26 -3.3 21 21 W 22 35 29.71 1006 10 16.0934 0 0
3:35 pm 15:35 Partly Cloudy 67 19.3 28 -2.5 23 23 WNW 17 28 29.71 1006 10 16.0934 0 0
3:55 pm 15:55 Partly Cloudy 67 19.5 27 -2.7 22 22 W 20 31 29.71 1006 10 16.0934 0 0
4:15 pm 16:15 Mostly Cloudy 67 19.7 28 -2.5 22 22 W 17 28 29.71 1006 10 16.0934 0 0
4:35 pm 16:35 Partly Cloudy 68 20.2 27 -2.8 21 21 W 18 30 29.71 1006 10 16.0934 0 0
4:55 pm 16:55 Partly Cloudy 69 20.7 27 -3 20 20 W 23 37 29.68 1005 10 16.0934 0 0
5:15 pm 17:15 Partly Cloudy 70 21.1 25 -4.1 18 18 WNW 20 31 29.65 1004 10 16.0934 0 0
5:35 pm 17:35 Mostly Cloudy 68 20 27 -3 21 21 NW 18 30 29.71 1006 10 16.0934 0 0
5:55 pm 17:55 Partly Cloudy 67 19.4 28 -2.1 23 23 NNW 12 19 29.71 1006 10 16.0934 0 0
6:15 pm 18:15 Mostly Cloudy 66 19.1 30 -1.3 25 25 WNW 10 17 29.71 1006 10 16.0934 0 0
6:35 pm 18:35 Cloudy 64 17.7 30 -1 28 28 NNE 15 24 29.71 1006 10 16.0934 0 0
6:55 pm 18:55 Mostly Cloudy 61 16.3 32 -0.1 33 33 NNE 25 41 29.74 1007 10 16.0934 0 0
7:15 pm 19:15 Mostly Cloudy 58 14.7 31 -0.7 35 35 NE 22 35 29.77 1008 10 16.0934 0 0
7:35 pm 19:35 Partly Cloudy 56 13.4 31 -0.6 38 38 NNE 20 31 29.83 1010 10 16.0934 0 0
7:55 pm 19:55 Sunny 54 12.1 30 -1.1 40 40 NNE 22 35 29.83 1010 10 16.0934 0 0
8:15 pm 20:15 Sunny 52 11 29 -1.4 42 42 NNE 21 33 29.88 1012 10 16.0934 0 0
8:35 pm 20:35 Clear 50 10 30 -1 47 47 NNE 17 28 29.88 1012 10 16.0934 0 0
8:55 pm 20:55 Clear 49 9.3 31 -0.8 50 50 NNE 16 26 29.91 1013 10 16.0934 0 0
9:15 pm 21:15 Clear 48 8.7 30 -0.9 51 51 NNE 15 24 29.91 1013 10 16.0934 0 0
9:35 pm 21:35 Clear 46 7.5 31 -0.3 58 58 NE 12 19 29.97 1015 10 16.0934 0 0
9:55 pm 21:55 Clear 45 7 31 -0.3 60 60 NNE 13 20 29.97 1015 10 16.0934 0 0
10:15 pm 22:15 Clear 44 6.8 31 -0.4 60 60 NNE 13 20 29.97 1015 10 16.0934 0 0
10:35 pm 22:35 Clear 43 6 31 -0.4 64 64 NNE 8 13 30 1016 10 16.0934 0 0
10:55 pm 22:55 Clear 43 5.9 31 -0.5 64 64 NNE 9 15 30 1016 10 16.0934 0 0
11:15 pm 23:15 Clear 42 5.4 31 -0.7 65 65 NE 5 7 30.03 1017 10 16.0934 0 0
11:35 pm 23:35 Clear 40 4.5 31 -0.7 69 69 NE 6 9 30.03 1017 10 16.0934 0 0
11:55 pm 23:55 Clear 38 3.6 30 -0.9 73 73 NE 7 11 30.03 1017 10 16.0934 0 0

Powered by AerisWeather